Location: Bratislava
(0.0000°N, 17.1167°E)
Time: 04:31:39
(UTC+01:00)

CSL-04 Rocket - Pass Details

Date: 24 January 2021
Orbit: 806 x 860 km, 98.9° (Epoch: 06 March)

Event Time Altitude Azimuth Distance (km) Brightness Sun altitude
Rises 19:50:36 0° 177° (S) 3,329 7.0 -25.1°
Reaches altitude 10° 19:52:59 10° 182° (S) 2,401 6.3 -25.7°
Maximum altitude 19:58:06 51° 257° (WSW) 1,021 4.4 -26.9°
Drops below altitude 10° 20:03:18 10° 332° (NNW) 2,421 6.1 -28.1°
Sets 20:05:43 0° 338° (NNW) 3,360 6.8 -28.7°
